CAPE
784 1034 1311 1643 2007 2026 2094 2138 2100 1924 1754 1547 1531 1447 1284 1253 1846 1408 1631 1843 1682 1651 1654 1657 1948 1466 1583 1584 1447 1752 1602 1811 1783 1492 1794 1798 1674 1736 1692 1708 1204 1350 996 688 742 802 600 607 813 544 338 367 556 26 0 0 0 0 0 76 139 0
982 1133 1292 1564 1843 2132 2149 2161 2008 1821 1623 1636 1558 1424 1192 1401 1597 1086 1753 1676 1540 1618 1588 813 983 1278 1663 1583 1770 1903 1584 1427 1240 608 739 1693 1840 1751 1686 1646 1442 1217 1104 828 726 457 446 718 736 536 307 81 0 0 0 0 0 0 0 10 60 24
625 1051 1317 1517 1822 1904 1995 1937 1545 1765 1606 1645 1629 1612 1354 1581 838 1659 1979 1811 1532 1353 1262 905 1047 1146 1141 1033 1695 1842 1751 1562 1053 706 795 1715 1827 1705 1637 1619 1564 1158 1115 632 115 0 0 91 192 228 33 0 0 0 0 0 0 0 0 15 0 147
793 793 1003 1241 1437 1497 1585 2009 1955 1870 1890 1729 1758 1543 1796 1601 1357 1791 1825 1174 1286 1424 1457 1138 913 866 593 992 1032 1688 1447 898 1376 768 1308 1745 1646 1607 1531 1419 1269 1158 700 385 105 0 0 37 39 0 0 0 0 0 0 0 0 0 0 163 0 260
1015 878 892 1182 1228 1219 1167 1466 1932 2410 2040 1960 1903 1704 1850 1709 1302 1840 1593 1251 1153 1081 1111 1164 1017 704 777 884 1268 1211 1245 1173 1001 1185 1479 1526 1412 1382 1271 1034 942 743 376 260 166 101 0 6 44 0 1 0 0 0 0 0 0 0 0 17 31 344
1166 1078 997 1102 1200 1367 1393 1135 1449 2005 2668 2565 2524 1981 1947 1739 1422 1398 1282 1309 860 709 579 830 928 652 635 1223 1160 1180 887 1050 1392 1602 1453 1334 1309 1144 868 710 480 113 85 281 204 130 141 37 72 0 0 0 0 0 0 0 0 0 0 0 87 411
1237 1189 1136 1169 1230 1533 1309 1245 1352 1842 2046 2240 2646 2443 2093 1567 1362 1385 1448 1456 1098 642 526 576 727 705 801 1215 1380 922 1099 1680 2059 1870 1480 1241 1177 907 614 451 221 51 9 42 132 216 270 201 207 248 0 0 0 0 0 0 0 0 0 0 59 476
1267 1324 1273 1277 1319 1337 1392 1514 1576 1983 1989 2050 2114 2342 2179 1308 1484 1687 1778 1404 1059 839 596 693 619 694 612 1069 1539 1496 2158 2422 2095 1708 1615 1137 916 777 463 364 274 0 6 0 180 310 250 152 0 118 133 0 0 0 0 0 0 0 0 0 1 371
1404 1403 1388 1364 1414 1408 1395 1580 1732 1785 1944 1965 2000 2097 2249 1642 882 957 1112 1301 1205 1047 1095 976 784 821 692 1089 1479 1912 2649 2375 1853 1749 1590 1142 865 740 628 474 408 53 0 197 164 36 31 53 23 0 0 0 0 0 0 0 0 0 0 0 0 74
1636 1536 1474 1428 1439 1404 1309 1559 1693 1768 1660 1535 1793 1952 1846 1754 1211 814 802 1208 1146 1202 1425 1230 1230 678 807 1249 899 1747 2412 2211 1973 1662 1348 1062 888 744 642 522 354 0 0 0 0 0 28 36 50 38 0 0 0 0 0 0 0 0 0 0 0 6
1788 1649 1504 1436 1374 1252 1234 1390 1585 1670 1618 1445 1276 1378 1735 1796 2024 1333 1153 936 989 1224 1515 1531 784 923 1022 1246 1249 1844 2264 2169 1925 1610 1143 780 941 811 670 455 211 0 13 20 32 21 14 14 16 16 0 0 0 0 0 0 0 0 0 0 0 0
1854 1619 1435 1309 1197 1122 1109 1123 1222 1447 1568 1431 1388 1341 1401 1433 1435 1280 814 695 851 991 1345 1413 1074 990 1068 991 1174 1402 1451 2154 1902 1526 1073 698 751 828 697 472 273 94 24 12 14 16 15 17 58 251 294 101 0 0 0 0 0 0 0 0 0 0
1671 1396 1180 1129 1055 1017 953 937 1096 1301 1532 1579 1406 1368 1314 1275 1191 1081 1094 1009 1005 1122 1301 1156 898 1018 1111 813 1027 987 937 1726 1806 1552 1232 756 645 710 596 428 297 198 173 5 16 35 147 357 439 472 464 405 137 0 0 0 0 0 0 0 0 0
1407 1226 1058 821 575 545 667 906 1138 1235 1304 1336 1295 1284 1205 1216 1120 1059 1324 1245 1206 893 794 712 753 859 726 806 961 1149 1078 1342 1836 1438 1253 907 614 590 513 481 480 417 565 244 249 351 457 499 497 542 556 415 184 0 0 0 0 0 0 0 0 0
1319 942 159 0 0 0 0 560 937 980 1009 1232 1074 1032 779 912 765 995 1244 1266 1092 954 1276 924 1059 994 1195 914 948 1247 1465 1386 1734 1673 1326 1033 745 689 615 470 412 472 507 557 565 600 582 586 567 560 561 406 189 0 0 0 0 0 0 0 0 0
771 128 0 0 0 0 0 0 0 11 0 0 0 156 450 765 1276 1008 1064 1126 976 724 837 1166 1291 1092 1184 1050 1038 1020 1421 1569 1406 1635 1513 1201 928 769 628 572 570 561 648 669 649 568 516 525 540 507 497 422 221 18 0 0 0 0 0 0 0 0
0 0 0 0 0 0 0 0 0 0 0 0 0 0 0 95 0 0 21 910 1431 1637 1216 1467 1003 927 1168 1198 1167 1174 1100 1029 1285 1261 1091 1103 989 704 593 664 540 592 547 520 446 401 420 412 393 396 382 320 177 103 16 0 0 0 0 0 0 0
0 0 0 0 0 0 0 0 0 0 0 0 0 0 0 0 0 0 498 712 917 1329 1284 1188 1087 1067 1146 960 985 1051 1135 1198 1147 939 897 834 968 672 431 424 627 516 518 322 351 511 483 486 367 462 504 425 164 50 60 104 180 178 115 0 0 0
0 0 0 0 0 0 0 0 0 0 0 0 0 0 0 0 0 217 616 960 1153 1113 932 837 901 1052 1032 630 749 745 932 838 1024 994 811 676 783 694 531 397 650 657 510 482 398 450 479 528 571 509 488 501 328 61 11 87 153 219 211 0 0 0
0 0 0 0 0 0 0 0 0 0 0 0 0 0 0 0 0 0 559 879 931 727 655 588 577 518 167 198 134 275 348 395 432 543 452 396 558 359 542 496 684 574 582 608 534 500 495 596 598 253 203 262 284 168 37 9 40 123 220 0 0 0
0 0 0 0 0 0 0 0 0 0 0 0 0 0 0 0 0 0 0 120 0 0 0 0 0 0 0 90 0 0 226 299 103 133 181 189 393 347 588 661 625 618 645 617 606 721 695 654 496 111 60 80 224 149 92 30 40 78 0 0 0 0
0 0 0 0 0 0 0 0 0 0 0 0 0 0 0 0 0 0 0 0 0 0 0 0 0 0 0 0 0 0 0 0 0 10 30 50 165 448 611 698 737 764 663 622 744 631 614 551 473 115 62 82 80 103 187 172 21 0 0 0 0 0
0 0 0 0 0 0 0 0 0 0 0 0 0 0 0 0 0 0 0 0 0 0 0 0 0 0 0 0 0 0 0 0 0 0 0 0 52 182 488 604 738 582 563 485 311 329 378 450 410 223 152 98 126 65 84 122 140 14 10 0 0 0
0 0 0 0 0 0 0 0 0 0 0 0 0 0 0 0 0 0 0 0 0 0 0 0 0 0 0 0 0 0 0 2 2 0 0 0 0 0 92 387 349 376 264 232 229 252 316 285 423 406 352 260 140 89 110 88 121 163 126 23 0 0
0 0 0 0 0 0 0 0 0 0 0 0 0 0 0 0 0 0 0 0 0 0 0 0 0 0 0 0 0 0 0 0 1 0 0 0 0 0 0 0 64 295 327 506 562 466 368 363 277 306 388 184 238 163 170 123 94 104 125 138 100 52
0 0 0 0 0 0 0 0 0 0 0 0 0 0 0 0 0 0 0 0 0 0 0 0 0 0 0 0 0 0 0 0 0 0 0 0 0 0 0 0 0 45 257 409 567 478 543 412 441 358 172 162 168 216 191 146 40 73 119 126 59 0
0 0 0 0 0 0 0 0 0 0 0 0 0 0 0 0 0 0 0 0 0 0 0 0 0 0 0 0 0 0 0 0 0 0 0 0 0 0 0 0 0 0 0 100 185 178 175 315 340 221 152 174 198 189 142 98 109 77 85 92 4 0
0 0 0 0 0 0 0 0 0 0 0 0 0 0 0 0 0 0 0 0 0 0 0 0 0 0 0 0 0 0 0 0 0 0 0 0 0 0 0 0 0 0 0 0 0 0 0 4 58 73 129 199 186 187 136 140 159 100 44 18 8 4
0 0 0 0 0 0 0 0 0 0 0 0 0 0 0 0 0 0 0 0 0 0 0 0 0 0 0 0 0 0 0 0 0 0 0 0 0 0 0 0 0 0 0 0 0 0 0 0 0 0 0 19 150 110 124 159 140 173 117 48 23 24
0 0 0 0 0 0 0 0 0 0 0 0 0 0 0 0 0 0 0 0 0 0 0 0 0 0 0 0 0 0 0 0 0 0 0 0 0 0 0 0 0 0 0 0 0 0 0 0 0 0 0 0 0 0 10 61 64 11 57 95 10 8
0 0 0 0 0 0 0 0 0 0 0 0 0 0 0 0 0 0 0 0 0 0 0 0 0 0 0 0 0 0 0 0 0 0 0 0 0 0 0 0 0 0 0 0 0 0 0 0 0 0 0 1 1 3 3 3 3 5 5 7 12 12
0 0 0 0 0 0 0 0 0 0 0 0 0 0 0 0 0 0 0 0 0 0 0 0 0 0 0 0 0 0 0 0 0 0 0 0 0 0 0 0 0 0 0 0 0 0 0 0 0 0 0 0 0 3 4 6 7 13 12 16 13 9
32 0 0 0 0 0 0 0 0 0 0 0 0 0 0 0 0 0 0 0 0 0 0 0 0 0 0 0 0 0 0 0 0 0 0 0 0 0 0 0 0 0 0 0 0 0 0 0 0 0 0 0 0 0 0 0 2 6 7 12 18 9
0 0 0 0 0 0 0 0 0 0 0 0 0 0 0 0 0 0 0 0 0 0 0 0 0 0 0 0 0 0 0 0 0 0 0 0 0 0 0 0 0 0 0 0 0 0 0 0 0 0 0 0 0 0 0 0 0 4 5 5 5 5
0 0 0 0 0 0 0 0 0 0 0 0 0 0 0 0 0 0 0 0 0 0 0 0 0 0 0 0 0 0 0 0 0 0 0 0 0 0 0 0 0 0 0 0 0 0 0 0 0 0 0 0 0 0 0 0 0 0 0 2 5 9
95 96 0 0 0 0 0 0 0 0 0 0 0 0 0 0 0 0 0 0 0 0 0 0 0 0 0 0 0 0 0 0 0 0 0 0 0 0 0 0 0 0 0 0 0 0 0 0 0 0 0 0 0 0 0 0 0 0 0 0 0 2
103 101 94 6 0 0 0 0 0 0 0 0 0 0 0 0 0 0 0 0 0 0 0 0 0 0 0 0 0 0 0 0 0 0 0 0 0 0 0 0 0 0 0 0 0 0 0 0 0 0 0 0 0 0 0 0 0 0 0 0 0 0
Wind_Speed
30 26 23 21 20 19 18 20 19 21 22 19 19 19 18 13 19 23 20 20 22 17 14 13 13 11 13 13 12 12 12 15 18 20 19 19 17 14 12 14 18 21 21 22 23 22 22 22 22 21 18 16 15 nan nan nan nan nan nan nan 25 nan
26 24 22 19 18 17 18 19 18 17 18 18 18 18 15 13 21 20 19 20 18 15 15 16 11 14 14 12 11 13 14 13 18 16 17 19 19 16 14 13 18 20 23 24 28 26 24 23 24 23 21 nan nan nan nan nan nan nan nan nan nan nan
24 21 21 19 17 18 18 17 16 16 17 17 16 17 15 16 18 19 18 17 17 15 15 15 15 19 16 20 11 13 14 14 16 14 14 18 21 20 18 15 16 21 25 29 28 nan nan nan 22 25 nan nan nan nan nan nan nan nan nan nan nan 22
21 19 20 18 18 17 17 15 15 15 16 16 16 16 16 16 17 17 18 16 16 17 17 14 15 22 19 16 12 11 13 14 15 14 14 18 23 24 21 19 16 23 26 28 29 nan nan nan nan nan nan nan nan nan nan nan nan nan nan 22 nan 21
20 18 19 17 17 16 15 14 14 14 14 15 16 16 16 17 17 16 16 15 15 15 17 16 15 17 20 13 10 12 12 13 15 16 18 21 23 26 27 23 22 23 23 26 29 29 nan nan nan nan nan nan nan nan nan nan nan nan nan nan nan 20
18 18 18 17 15 13 15 14 13 14 14 16 16 16 16 19 17 15 13 17 14 15 15 15 17 20 16 13 9 12 10 10 16 18 20 22 24 27 29 26 24 23 nan 26 29 29 27 nan nan nan nan nan nan nan nan nan nan nan nan nan nan 18
17 18 19 16 16 15 15 15 13 13 15 15 16 17 19 19 18 17 15 16 14 13 12 13 17 18 21 16 12 12 10 11 16 18 20 23 23 24 26 25 25 nan nan nan 28 28 27 25 23 23 nan nan nan nan nan nan nan nan nan nan nan 16
17 18 18 17 16 16 15 15 13 13 15 14 17 17 19 21 21 20 18 17 15 11 9 11 16 19 20 16 13 10 12 13 16 17 19 22 23 24 25 23 24 nan nan nan 27 29 29 26 nan 23 25 nan nan nan nan nan nan nan nan nan nan 16
18 18 18 17 17 16 16 17 17 18 18 18 19 18 18 20 22 22 21 19 16 14 10 12 15 19 20 17 14 12 14 14 15 16 19 20 22 22 23 22 23 nan nan 28 27 nan nan nan nan nan nan nan nan nan nan nan nan nan nan nan nan nan
17 18 17 17 17 17 17 18 18 17 19 21 21 22 23 20 22 24 24 20 16 13 11 14 19 23 23 17 12 10 13 14 14 15 17 19 20 21 21 21 22 nan nan nan nan nan nan nan nan nan nan nan nan nan nan nan nan nan nan nan nan nan
17 17 17 18 18 18 19 19 19 18 21 22 21 24 24 24 23 25 25 23 18 13 12 15 22 23 21 16 12 9 10 14 14 15 17 19 20 20 21 20 21 nan nan nan nan nan nan nan nan nan nan nan nan nan nan nan nan nan nan nan nan nan
18 18 18 18 19 19 20 20 20 21 21 24 24 22 25 26 26 27 26 23 20 19 16 19 25 25 22 15 11 9 9 11 14 15 17 21 21 20 19 18 20 nan nan nan nan nan nan nan nan 29 28 26 nan nan nan nan nan nan nan nan nan nan
19 19 19 19 20 21 22 22 22 22 23 24 26 26 24 26 26 26 27 25 21 19 20 25 25 25 23 16 11 11 11 12 13 16 18 21 23 21 20 19 19 26 30 nan nan nan 32 29 27 29 29 29 28 nan nan nan nan nan nan nan nan nan
20 21 21 22 22 23 23 23 23 22 24 26 25 26 26 23 25 25 25 23 22 21 22 26 25 23 22 22 16 16 16 15 15 16 19 22 23 23 22 21 21 25 29 32 34 36 36 32 30 29 29 30 29 nan nan nan nan nan nan nan nan nan
22 23 23 nan nan nan nan 25 25 23 24 24 24 25 24 24 25 23 22 22 22 21 20 25 25 24 21 22 18 16 18 19 18 18 19 20 21 23 24 24 24 24 29 32 34 36 36 33 32 31 30 30 30 nan nan nan nan nan nan nan nan nan
24 24 nan nan nan nan nan nan nan nan nan nan nan 24 24 23 25 22 24 22 21 22 23 26 26 26 23 20 19 16 18 21 21 19 18 20 21 22 23 24 24 26 27 30 34 35 36 34 34 33 31 30 30 nan nan nan nan nan nan nan nan nan
nan nan nan nan nan nan nan nan nan nan nan nan nan nan nan nan nan nan nan 27 24 26 27 26 25 24 21 19 18 18 20 23 21 20 19 18 17 19 23 19 22 23 26 28 31 32 34 35 36 36 34 32 30 30 nan nan nan nan nan nan nan nan
nan nan nan nan nan nan nan nan nan nan nan nan nan nan nan nan nan nan 28 28 27 29 30 28 25 25 24 20 20 21 21 23 23 22 17 16 14 19 16 18 19 22 24 23 24 28 32 34 36 38 39 36 32 nan nan 32 32 33 31 nan nan nan
nan nan nan nan nan nan nan nan nan nan nan nan nan nan nan nan nan 28 29 29 31 31 31 30 28 27 26 25 25 24 23 24 23 23 24 24 20 14 18 16 18 22 21 20 23 26 29 32 34 37 40 39 36 nan nan nan 33 33 32 nan nan nan
nan nan nan nan nan nan nan nan nan nan nan nan nan nan nan nan nan nan 28 29 30 31 30 29 28 26 26 26 25 27 26 24 24 24 25 25 18 21 21 19 20 21 21 19 21 23 27 30 32 34 38 40 40 38 nan nan nan 32 33 nan nan nan
nan nan nan nan nan nan nan nan nan nan nan nan nan nan nan nan nan nan nan 28 nan nan nan nan nan nan nan nan nan nan 28 26 24 26 25 21 22 24 23 20 21 26 23 20 18 23 26 28 31 34 nan nan 40 41 nan nan nan nan nan nan nan nan
nan nan nan nan nan nan nan nan nan nan nan nan nan nan nan nan nan nan nan nan nan nan nan nan nan nan nan nan nan nan nan nan nan nan nan nan 25 27 24 23 23 25 22 19 18 20 22 24 27 31 nan nan nan 38 40 43 nan nan nan nan nan nan
nan nan nan nan nan nan nan nan nan nan nan nan nan nan nan nan nan nan nan nan nan nan nan nan nan nan nan nan nan nan nan nan nan nan nan nan nan 31 25 23 25 24 20 18 19 18 19 21 23 29 33 nan 31 nan nan 47 47 nan nan nan nan nan
nan nan nan nan nan nan nan nan nan nan nan nan nan nan nan nan nan nan nan nan nan nan nan nan nan nan nan nan nan nan nan nan nan nan nan nan nan nan nan 24 24 25 22 21 19 21 21 19 21 26 29 26 29 nan 35 nan 48 47 47 nan nan nan
nan nan nan nan nan nan nan nan nan nan nan nan nan nan nan nan nan nan nan nan nan nan nan nan nan nan nan nan nan nan nan nan nan nan nan nan nan nan nan nan nan 29 24 22 22 22 23 22 20 22 30 29 27 26 27 36 nan 37 46 47 43 nan
nan nan nan nan nan nan nan nan nan nan nan nan nan nan nan nan nan nan nan nan nan nan nan nan nan nan nan nan nan nan nan nan nan nan nan nan nan nan nan nan nan nan 32 28 26 25 26 25 23 28 33 33 30 25 24 28 nan nan 36 40 nan nan
nan nan nan nan nan nan nan nan nan nan nan nan nan nan nan nan nan nan nan nan nan nan nan nan nan nan nan nan nan nan nan nan nan nan nan nan nan nan nan nan nan nan nan nan 30 31 29 26 29 31 30 30 32 30 22 nan 22 nan nan nan nan nan
nan nan nan nan nan nan nan nan nan nan nan nan nan nan nan nan nan nan nan nan nan nan nan nan nan nan nan nan nan nan nan nan nan nan nan nan nan nan nan nan nan nan nan nan nan nan nan nan nan nan 27 29 28 27 22 15 13 20 nan nan nan nan
nan nan nan nan nan nan nan nan nan nan nan nan nan nan nan nan nan nan nan nan nan nan nan nan nan nan nan nan nan nan nan nan nan nan nan nan nan nan nan nan nan nan nan nan nan nan nan nan nan nan nan nan 30 29 25 22 18 15 19 nan nan nan
nan nan nan nan nan nan nan nan nan nan nan nan nan nan nan nan nan nan nan nan nan nan nan nan nan nan nan nan nan nan nan nan nan nan nan nan nan nan nan nan nan nan nan nan nan nan nan nan nan nan nan nan nan nan nan nan nan nan nan nan nan nan
nan nan nan nan nan nan nan nan nan nan nan nan nan nan nan nan nan nan nan nan nan nan nan nan nan nan nan nan nan nan nan nan nan nan nan nan nan nan nan nan nan nan nan nan nan nan nan nan nan nan nan nan nan nan nan nan nan nan nan nan nan nan
nan nan nan nan nan nan nan nan nan nan nan nan nan nan nan nan nan nan nan nan nan nan nan nan nan nan nan nan nan nan nan nan nan nan nan nan nan nan nan nan nan nan nan nan nan nan nan nan nan nan nan nan nan nan nan nan nan nan nan nan nan nan
nan nan nan nan nan nan nan nan nan nan nan nan nan nan nan nan nan nan nan nan nan nan nan nan nan nan nan nan nan nan nan nan nan nan nan nan nan nan nan nan nan nan nan nan nan nan nan nan nan nan nan nan nan nan nan nan nan nan nan nan nan nan
nan nan nan nan nan nan nan nan nan nan nan nan nan nan nan nan nan nan nan nan nan nan nan nan nan nan nan nan nan nan nan nan nan nan nan nan nan nan nan nan nan nan nan nan nan nan nan nan nan nan nan nan nan nan nan nan nan nan nan nan nan nan
nan nan nan nan nan nan nan nan nan nan nan nan nan nan nan nan nan nan nan nan nan nan nan nan nan nan nan nan nan nan nan nan nan nan nan nan nan nan nan nan nan nan nan nan nan nan nan nan nan nan nan nan nan nan nan nan nan nan nan nan nan nan
nan nan nan nan nan nan nan nan nan nan nan nan nan nan nan nan nan nan nan nan nan nan nan nan nan nan nan nan nan nan nan nan nan nan nan nan nan nan nan nan nan nan nan nan nan nan nan nan nan nan nan nan nan nan nan nan nan nan nan nan nan nan
19 21 nan nan nan nan nan nan nan nan nan nan nan nan nan nan nan nan nan nan nan nan nan nan nan nan nan nan nan nan nan nan nan nan nan nan nan nan nan nan nan nan nan nan nan nan nan nan nan nan nan nan nan nan nan nan nan nan nan nan nan nan
Wind_Direction
272 275 268 265 264 268 278 284 283 287 286 289 282 283 281 291 271 266 285 288 281 276 266 255 272 268 279 261 267 271 276 280 271 256 247 250 256 244 231 242 255 249 241 229 221 221 235 241 243 238 229 226 236 nan nan nan nan nan nan nan 235 nan
275 270 266 263 262 263 266 269 267 267 273 275 273 281 284 274 275 280 288 278 277 276 266 255 238 255 250 261 268 274 280 282 272 265 250 247 254 253 242 225 247 248 236 227 222 212 212 228 242 238 232 nan nan nan nan nan nan nan nan nan nan nan
276 270 264 258 258 264 263 267 269 269 273 274 275 278 269 273 277 278 280 280 277 266 259 268 251 248 243 234 260 286 282 283 281 273 263 254 248 248 242 231 235 245 234 226 218 nan nan nan 222 237 nan nan nan nan nan nan nan nan nan nan nan 241
275 269 264 261 256 258 261 261 266 265 266 267 267 268 263 271 276 277 276 274 273 271 265 253 256 258 242 246 235 257 274 280 275 271 275 255 248 239 241 237 225 239 231 219 214 nan nan nan nan nan nan nan nan nan nan nan nan nan nan 233 nan 241
268 263 259 256 260 260 261 261 256 261 270 269 271 267 267 273 270 272 272 268 266 267 268 268 267 259 264 249 247 251 242 255 262 250 254 243 243 235 233 230 224 229 228 224 216 213 nan nan nan nan nan nan nan nan nan nan nan nan nan nan nan 239
261 254 252 254 257 262 263 260 261 258 259 265 272 276 274 269 268 268 267 270 267 264 267 270 278 278 276 276 273 269 263 261 260 254 248 249 247 240 227 223 228 225 nan 225 222 216 215 nan nan nan nan nan nan nan nan nan nan nan nan nan nan 242
251 248 248 249 250 252 258 260 262 262 268 270 271 278 279 275 269 266 264 265 272 277 280 286 284 286 283 278 266 269 263 256 259 256 254 253 252 250 240 231 228 nan nan nan 225 220 219 217 215 223 nan nan nan nan nan nan nan nan nan nan nan 242
245 240 238 242 245 246 251 258 263 265 261 270 269 271 275 283 281 277 273 273 275 271 280 290 289 287 281 271 276 273 268 257 255 255 258 256 255 250 248 238 228 nan nan nan 223 222 218 218 nan 221 231 nan nan nan nan nan nan nan nan nan nan 235
241 238 235 237 239 243 248 253 251 258 264 265 260 260 264 274 282 282 279 280 286 291 297 291 292 289 287 279 271 249 263 261 257 259 260 259 258 254 252 247 229 nan nan 222 221 nan nan nan nan nan nan nan nan nan nan nan nan nan nan nan nan nan
242 240 238 239 241 245 245 248 249 258 259 259 260 260 257 260 273 279 279 279 281 287 297 291 290 284 285 282 272 245 248 263 265 265 265 266 260 257 256 249 234 nan nan nan nan nan nan nan nan nan nan nan nan nan nan nan nan nan nan nan nan nan
244 245 242 246 248 248 248 250 253 257 261 264 262 261 257 259 263 264 276 283 286 284 277 272 273 273 276 281 280 267 250 255 264 265 268 269 263 262 256 253 247 nan nan nan nan nan nan nan nan nan nan nan nan nan nan nan nan nan nan nan nan nan
245 245 248 250 252 254 254 257 259 260 264 267 269 262 262 264 262 265 265 265 265 264 266 263 269 273 268 267 291 291 270 267 272 269 269 270 269 264 263 257 251 nan nan nan nan nan nan nan nan 219 220 220 nan nan nan nan nan nan nan nan nan nan
245 245 251 254 256 257 257 257 260 263 266 267 265 264 257 255 258 259 264 267 270 269 263 265 266 278 280 289 307 306 288 280 277 276 274 273 274 269 264 262 252 245 240 nan nan nan 224 228 222 221 223 222 225 nan nan nan nan nan nan nan nan nan
245 250 251 254 256 257 260 262 262 262 263 263 264 265 265 262 259 253 256 260 258 252 252 260 268 272 286 295 308 304 296 287 274 271 269 269 272 269 267 266 263 254 245 240 236 229 226 223 223 221 221 225 225 nan nan nan nan nan nan nan nan nan
243 247 250 nan nan nan nan 261 263 263 265 268 267 264 265 263 259 261 259 258 261 260 255 262 269 277 283 286 289 284 285 277 268 263 263 264 264 262 263 261 258 259 248 241 239 236 234 228 226 223 219 223 225 nan nan nan nan nan nan nan nan nan
247 251 nan nan nan nan nan nan nan nan nan nan nan 264 264 264 267 264 262 270 269 271 266 265 270 269 275 280 278 276 269 259 256 254 254 255 253 253 252 252 255 257 252 241 237 233 236 232 230 226 226 228 223 nan nan nan nan nan nan nan nan nan
nan nan nan nan nan nan nan nan nan nan nan nan nan nan nan nan nan nan nan 259 261 263 264 263 266 272 272 271 271 267 264 258 254 250 244 247 255 250 245 248 251 256 257 249 240 234 233 233 232 231 228 229 231 230 nan nan nan nan nan nan nan nan
nan nan nan nan nan nan nan nan nan nan nan nan nan nan nan nan nan nan 259 258 258 261 264 262 254 254 263 262 257 258 256 256 255 256 242 250 253 255 261 259 263 262 261 259 252 245 237 232 232 231 229 227 230 nan nan 230 232 235 238 nan nan nan
nan nan nan nan nan nan nan nan nan nan nan nan nan nan nan nan nan 257 258 260 262 261 260 257 254 252 252 248 247 247 249 250 252 250 252 245 240 250 271 267 267 265 260 256 250 248 246 238 232 230 228 227 230 nan nan nan 231 235 238 nan nan nan
nan nan nan nan nan nan nan nan nan nan nan nan nan nan nan nan nan nan 258 261 263 264 264 262 258 258 255 251 249 248 251 247 245 247 248 250 252 246 242 256 267 265 263 257 252 247 248 244 237 234 229 226 229 231 nan nan nan 234 236 nan nan nan
nan nan nan nan nan nan nan nan nan nan nan nan nan nan nan nan nan nan nan 260 nan nan nan nan nan nan nan nan nan nan 245 243 246 248 253 251 245 244 251 251 254 259 264 263 253 250 247 249 242 234 nan nan 228 230 nan nan nan nan nan nan nan nan
nan nan nan nan nan nan nan nan nan nan nan nan nan nan nan nan nan nan nan nan nan nan nan nan nan nan nan nan nan nan nan nan nan nan nan nan 251 245 251 256 255 265 261 253 245 249 245 245 243 240 nan nan nan 231 235 235 nan nan nan nan nan nan
nan nan nan nan nan nan nan nan nan nan nan nan nan nan nan nan nan nan nan nan nan nan nan nan nan nan nan nan nan nan nan nan nan nan nan nan nan 243 246 260 265 267 270 253 239 236 234 225 232 236 240 nan 243 nan nan 232 235 nan nan nan nan nan
nan nan nan nan nan nan nan nan nan nan nan nan nan nan nan nan nan nan nan nan nan nan nan nan nan nan nan nan nan nan nan nan nan nan nan nan nan nan nan 249 256 261 265 263 251 245 235 230 224 230 230 239 244 nan 238 nan 230 229 238 nan nan nan
nan nan nan nan nan nan nan nan nan nan nan nan nan nan nan nan nan nan nan nan nan nan nan nan nan nan nan nan nan nan nan nan nan nan nan nan nan nan nan nan nan 250 255 257 256 252 243 237 242 231 233 230 230 237 248 246 nan 231 234 233 230 nan
nan nan nan nan nan nan nan nan nan nan nan nan nan nan nan nan nan nan nan nan nan nan nan nan nan nan nan nan nan nan nan nan nan nan nan nan nan nan nan nan nan nan 246 246 250 254 248 242 238 233 231 233 233 234 235 238 nan nan 232 235 nan nan
nan nan nan nan nan nan nan nan nan nan nan nan nan nan nan nan nan nan nan nan nan nan nan nan nan nan nan nan nan nan nan nan nan nan nan nan nan nan nan nan nan nan nan nan 247 253 250 243 245 239 239 239 239 242 244 nan 229 nan nan nan nan nan
nan nan nan nan nan nan nan nan nan nan nan nan nan nan nan nan nan nan nan nan nan nan nan nan nan nan nan nan nan nan nan nan nan nan nan nan nan nan nan nan nan nan nan nan nan nan nan nan nan nan 244 250 248 247 252 253 231 228 nan nan nan nan
nan nan nan nan nan nan nan nan nan nan nan nan nan nan nan nan nan nan nan nan nan nan nan nan nan nan nan nan nan nan nan nan nan nan nan nan nan nan nan nan nan nan nan nan nan nan nan nan nan nan nan nan 251 256 262 265 261 251 240 nan nan nan
nan nan nan nan nan nan nan nan nan nan nan nan nan nan nan nan nan nan nan nan nan nan nan nan nan nan nan nan nan nan nan nan nan nan nan nan nan nan nan nan nan nan nan nan nan nan nan nan nan nan nan nan nan nan nan nan nan nan nan nan nan nan
nan nan nan nan nan nan nan nan nan nan nan nan nan nan nan nan nan nan nan nan nan nan nan nan nan nan nan nan nan nan nan nan nan nan nan nan nan nan nan nan nan nan nan nan nan nan nan nan nan nan nan nan nan nan nan nan nan nan nan nan nan nan
nan nan nan nan nan nan nan nan nan nan nan nan nan nan nan nan nan nan nan nan nan nan nan nan nan nan nan nan nan nan nan nan nan nan nan nan nan nan nan nan nan nan nan nan nan nan nan nan nan nan nan nan nan nan nan nan nan nan nan nan nan nan
nan nan nan nan nan nan nan nan nan nan nan nan nan nan nan nan nan nan nan nan nan nan nan nan nan nan nan nan nan nan nan nan nan nan nan nan nan nan nan nan nan nan nan nan nan nan nan nan nan nan nan nan nan nan nan nan nan nan nan nan nan nan
nan nan nan nan nan nan nan nan nan nan nan nan nan nan nan nan nan nan nan nan nan nan nan nan nan nan nan nan nan nan nan nan nan nan nan nan nan nan nan nan nan nan nan nan nan nan nan nan nan nan nan nan nan nan nan nan nan nan nan nan nan nan
nan nan nan nan nan nan nan nan nan nan nan nan nan nan nan nan nan nan nan nan nan nan nan nan nan nan nan nan nan nan nan nan nan nan nan nan nan nan nan nan nan nan nan nan nan nan nan nan nan nan nan nan nan nan nan nan nan nan nan nan nan nan
nan nan nan nan nan nan nan nan nan nan nan nan nan nan nan nan nan nan nan nan nan nan nan nan nan nan nan nan nan nan nan nan nan nan nan nan nan nan nan nan nan nan nan nan nan nan nan nan nan nan nan nan nan nan nan nan nan nan nan nan nan nan
290 288 nan nan nan nan nan nan nan nan nan nan nan nan nan nan nan nan nan nan nan nan nan nan nan nan nan nan nan nan nan nan nan nan nan nan nan nan nan nan nan nan nan nan nan nan nan nan nan nan nan nan nan nan nan nan nan nan nan nan nan nan